Погода в Саффолке

США     36°43′39″N   76°34′58″W
темп.,
°C
ветер,
м/с
пор.,
м/с
влажн.,
%
обл.,
%
осадки,
мм/ч
давл.,
гПа
погр.,
м
21 октября, чт
чт2123:00+15юз22560 0.0 102031
02:00+13юз355511 0.0 102087
05:00+13юз2455100 0.0 102073
08:00+13юз37590 0.0 1020127
11:00+22юз484142 0.0 1019495
14:00+26юз683567 0.0 10171251
17:00+25юз510370 0.0 10151254
20:00+19ююз414545 0.0 1015379
22 октября, пт
пт2223:00+19ююз516595 0.0 1015574
02:00+18ююз515660 0.1 1014614
05:00+17юз413787 0.0 1014470
08:00+17юз3118698 0.0 1015377
11:00+22зюз356977 0.3 1016877
14:00+22з4670100 0.7 1014998
17:00+21сз2369100 0.3 1014524
20:00+18св2472100 0.3 1015138
23 октября, сб
сб2323:00+18св1178100 0.0 101537
02:00+16ссз22860 0.0 101539
05:00+14сз23890 0.0 101552
08:00+14сз249012 0.0 1017120
11:00+20сз23570 0.0 1018805
14:00+22сз45390 0.0 10171659
17:00+21зсз34410 0.0 10171267
20:00+16сз11550 0.0 101819
24 октября, вс
вс2423:00+14ю24665 0.0 101972
02:00+13ююз24795 0.0 102089
05:00+13ююз229025 0.0 102046
08:00+13ююз247566 0.0 102190
11:00+21ююз47435 0.0 1021593
14:00+25юз58320 0.0 10191312
17:00+25ююз48395 0.0 10181063
20:00+19ю412633 0.0 1019354
25 октября, пн
пн2523:00+19ююз515755 0.0 1018530
02:00+18ююз414840 0.0 1019552
05:00+18юз515820 0.0 1018527
08:00+17юз414785 0.0 1018429
11:00+23юз5114626 0.0 1017663
14:00+27юз693423 0.0 10131230
17:00+26юз5941100 0.0 10111116
20:00+22ююз3105699 0.0 1011251